Time,TemperatureF,DewpointF,PressureIn,WindDirection,WindDirectionDegrees,WindSpeedMPH,WindSpeedGustMPH,Humidity,HourlyPrecipIn,Conditions,Clouds,dailyrainin,SoftwareType,DateUTC
2013-09-14 00:05:00,72.4,-99.9,29.85,North,5,16.0,-999.0,0,-99.99,,,0.00,weatherlink.com 1.10,2013-09-14 04:05:00,
2013-09-14 00:20:00,71.3,-99.9,29.85,North,5,11.0,-999.0,0,-99.99,,,0.00,weatherlink.com 1.10,2013-09-14 04:20:00,
2013-09-14 00:35:00,70.6,-99.9,29.86,North,5,15.0,-999.0,0,-99.99,,,0.00,weatherlink.com 1.10,2013-09-14 04:35:00,
2013-09-14 00:50:00,70.2,-99.9,29.86,North,5,14.0,-999.0,0,-99.99,,,0.00,weatherlink.com 1.10,2013-09-14 04:50:00,
2013-09-14 01:05:00,69.5,-99.9,29.86,North,5,9.0,-999.0,0,-99.99,,,0.00,weatherlink.com 1.10,2013-09-14 05:05:00,
2013-09-14 01:20:00,69.3,-99.9,29.86,North,5,8.0,-999.0,0,-99.99,,,0.00,weatherlink.com 1.10,2013-09-14 05:20:00,
2013-09-14 01:35:00,69.4,-99.9,29.87,North,5,6.0,-999.0,0,-99.99,,,0.00,weatherlink.com 1.10,2013-09-14 05:35:00,
2013-09-14 01:50:00,69.6,-99.9,29.86,North,5,6.0,-999.0,0,-99.99,,,0.00,weatherlink.com 1.10,2013-09-14 05:50:00,
2013-09-14 02:05:00,69.7,-99.9,29.86,North,5,8.0,-999.0,0,-99.99,,,0.00,weatherlink.com 1.10,2013-09-14 06:05:00,
2013-09-14 02:20:00,69.8,-99.9,29.86,North,5,10.0,-999.0,0,-99.99,,,0.00,weatherlink.com 1.10,2013-09-14 06:20:00,
2013-09-14 02:35:00,69.9,-99.9,29.86,North,5,7.0,-999.0,0,-99.99,,,0.00,weatherlink.com 1.10,2013-09-14 06:35:00,
2013-09-14 02:50:00,70.4,-99.9,29.87,North,5,7.0,-999.0,0,-99.99,,,0.00,weatherlink.com 1.10,2013-09-14 06:50:00,
2013-09-14 03:06:00,69.8,-99.9,29.88,North,5,7.0,-999.0,0,-99.99,,,0.00,weatherlink.com 1.10,2013-09-14 07:06:00,
2013-09-14 03:21:00,69.5,-99.9,29.88,North,5,5.0,-999.0,0,-99.99,,,0.00,weatherlink.com 1.10,2013-09-14 07:21:00,
2013-09-14 03:36:00,69.8,-99.9,29.88,North,5,4.0,-999.0,0,-99.99,,,0.00,weatherlink.com 1.10,2013-09-14 07:36:00,
2013-09-14 03:51:00,69.3,-99.9,29.87,North,5,7.0,-999.0,0,-99.99,,,0.00,weatherlink.com 1.10,2013-09-14 07:51:00,
2013-09-14 04:06:00,69.2,-99.9,29.88,North,5,6.0,-999.0,0,-99.99,,,0.00,weatherlink.com 1.10,2013-09-14 08:06:00,
2013-09-14 04:21:00,69.3,-99.9,29.88,North,5,8.0,-999.0,0,-99.99,,,0.00,weatherlink.com 1.10,2013-09-14 08:21:00,
2013-09-14 04:36:00,69.0,-99.9,29.88,North,5,8.0,-999.0,0,-99.99,,,0.00,weatherlink.com 1.10,2013-09-14 08:36:00,
2013-09-14 04:51:00,68.9,-99.9,29.88,North,5,8.0,-999.0,0,-99.99,,,0.00,weatherlink.com 1.10,2013-09-14 08:51:00,
2013-09-14 05:06:00,68.4,-99.9,29.88,North,5,8.0,-999.0,0,-99.99,,,0.00,weatherlink.com 1.10,2013-09-14 09:06:00,
2013-09-14 05:21:00,68.2,-99.9,29.89,North,5,9.0,-999.0,0,-99.99,,,0.00,weatherlink.com 1.10,2013-09-14 09:21:00,
2013-09-14 05:36:00,68.3,-99.9,29.89,North,5,6.0,-999.0,0,-99.99,,,0.00,weatherlink.com 1.10,2013-09-14 09:36:00,
2013-09-14 05:51:00,68.0,-99.9,29.90,North,5,9.0,-999.0,0,-99.99,,,0.00,weatherlink.com 1.10,2013-09-14 09:51:00,
2013-09-14 06:06:00,67.4,-99.9,29.91,North,5,14.0,-999.0,0,-99.99,,,0.00,weatherlink.com 1.10,2013-09-14 10:06:00,
2013-09-14 06:21:00,66.4,-99.9,29.91,North,5,7.0,-999.0,0,-99.99,,,0.00,weatherlink.com 1.10,2013-09-14 10:21:00,
2013-09-14 06:37:00,65.9,-99.9,29.93,North,5,5.0,-999.0,0,-99.99,,,0.00,weatherlink.com 1.10,2013-09-14 10:37:00,
2013-09-14 06:52:00,65.3,-99.9,29.93,North,5,6.0,-999.0,0,-99.99,,,0.00,weatherlink.com 1.10,2013-09-14 10:52:00,
2013-09-14 07:07:00,64.8,-99.9,29.94,North,5,7.0,-999.0,0,-99.99,,,0.00,weatherlink.com 1.10,2013-09-14 11:07:00,
2013-09-14 07:22:00,64.4,-99.9,29.94,North,5,10.0,-999.0,0,-99.99,,,0.00,weatherlink.com 1.10,2013-09-14 11:22:00,
2013-09-14 07:37:00,64.5,-99.9,29.95,North,5,8.0,-999.0,0,-99.99,,,0.00,weatherlink.com 1.10,2013-09-14 11:37:00,
2013-09-14 07:52:00,64.7,-99.9,29.96,North,5,5.0,-999.0,0,-99.99,,,0.00,weatherlink.com 1.10,2013-09-14 11:52:00,
2013-09-14 08:07:00,65.3,-99.9,29.96,North,5,12.0,-999.0,0,-99.99,,,0.00,weatherlink.com 1.10,2013-09-14 12:07:00,
2013-09-14 08:22:00,65.1,-99.9,29.96,North,5,15.0,-999.0,0,-99.99,,,0.00,weatherlink.com 1.10,2013-09-14 12:22:00,
2013-09-14 08:37:00,65.5,-99.9,29.97,North,5,12.0,-999.0,0,-99.99,,,0.00,weatherlink.com 1.10,2013-09-14 12:37:00,
2013-09-14 08:52:00,66.2,-99.9,29.97,North,5,13.0,-999.0,0,-99.99,,,0.00,weatherlink.com 1.10,2013-09-14 12:52:00,
2013-09-14 09:07:00,66.5,-99.9,29.98,North,5,19.0,-999.0,0,-99.99,,,0.00,weatherlink.com 1.10,2013-09-14 13:07:00,
2013-09-14 09:22:00,67.1,-99.9,29.99,North,5,13.0,-999.0,0,-99.99,,,0.00,weatherlink.com 1.10,2013-09-14 13:22:00,
2013-09-14 09:37:00,67.3,-99.9,30.00,North,5,15.0,-999.0,0,-99.99,,,0.00,weatherlink.com 1.10,2013-09-14 13:37:00,
2013-09-14 09:52:00,68.7,-99.9,30.00,North,5,8.0,-999.0,0,-99.99,,,0.00,weatherlink.com 1.10,2013-09-14 13:52:00,
2013-09-14 10:08:00,69.4,-99.9,30.00,North,5,8.0,-999.0,0,-99.99,,,0.00,weatherlink.com 1.10,2013-09-14 14:08:00,
2013-09-14 10:23:00,70.8,-99.9,30.00,North,5,18.0,-999.0,0,-99.99,,,0.00,weatherlink.com 1.10,2013-09-14 14:23:00,
2013-09-14 10:38:00,71.6,-35.0,30.01,North,5,16.0,-999.0,1,-99.99,,,0.00,weatherlink.com 1.10,2013-09-14 14:38:00,
2013-09-14 10:53:00,73.1,2.0,30.01,North,5,8.0,-999.0,6,-99.99,,,0.00,weatherlink.com 1.10,2013-09-14 14:53:00,
2013-09-14 11:08:00,73.1,5.0,30.02,North,5,8.0,-999.0,7,-99.99,,,0.00,weatherlink.com 1.10,2013-09-14 15:08:00,
2013-09-14 11:23:00,73.9,16.0,30.02,North,5,14.0,-999.0,11,-99.99,,,0.00,weatherlink.com 1.10,2013-09-14 15:23:00,
2013-09-14 11:38:00,74.6,21.0,30.01,North,5,16.0,-999.0,13,-99.99,,,0.00,weatherlink.com 1.10,2013-09-14 15:38:00,
2013-09-14 11:53:00,74.6,21.0,30.01,North,5,18.0,-999.0,13,-99.99,,,0.00,weatherlink.com 1.10,2013-09-14 15:53:00,
2013-09-14 12:08:00,75.4,21.0,30.01,North,5,15.0,-999.0,13,-99.99,,,0.00,weatherlink.com 1.10,2013-09-14 16:08:00,
2013-09-14 12:23:00,76.5,27.0,30.02,North,5,18.0,-999.0,16,-99.99,,,0.00,weatherlink.com 1.10,2013-09-14 16:23:00,
2013-09-14 12:38:00,76.7,27.0,30.03,North,5,8.0,-999.0,16,-99.99,,,0.00,weatherlink.com 1.10,2013-09-14 16:38:00,
2013-09-14 12:53:00,77.2,29.0,30.03,North,5,10.0,-999.0,17,-99.99,,,0.00,weatherlink.com 1.10,2013-09-14 16:53:00,
2013-09-14 13:08:00,78.2,42.0,30.03,North,5,10.0,-999.0,27,-99.99,,,0.00,weatherlink.com 1.10,2013-09-14 17:08:00,
2013-09-14 13:23:00,78.6,39.0,30.03,North,5,15.0,-999.0,24,-99.99,,,0.00,weatherlink.com 1.10,2013-09-14 17:23:00,
2013-09-14 13:39:00,79.5,49.0,30.03,North,5,11.0,-999.0,34,-99.99,,,0.00,weatherlink.com 1.10,2013-09-14 17:39:00,
2013-09-14 13:54:00,79.4,50.0,30.02,North,5,11.0,-999.0,36,-99.99,,,0.00,weatherlink.com 1.10,2013-09-14 17:54:00,
2013-09-14 14:09:00,80.0,51.0,30.02,North,5,9.0,-999.0,37,-99.99,,,0.00,weatherlink.com 1.10,2013-09-14 18:09:00,
2013-09-14 14:24:00,80.4,52.0,30.02,North,5,13.0,-999.0,38,-99.99,,,0.00,weatherlink.com 1.10,2013-09-14 18:24:00,
2013-09-14 14:39:00,81.4,53.0,30.02,North,5,8.0,-999.0,37,-99.99,,,0.00,weatherlink.com 1.10,2013-09-14 18:39:00,
2013-09-14 14:54:00,81.2,54.0,30.02,North,5,9.0,-999.0,39,-99.99,,,0.00,weatherlink.com 1.10,2013-09-14 18:54:00,
2013-09-14 15:09:00,81.0,55.0,30.02,North,5,10.0,-999.0,41,-99.99,,,0.00,weatherlink.com 1.10,2013-09-14 19:09:00,
2013-09-14 15:24:00,80.3,52.0,30.02,North,5,13.0,-999.0,38,-99.99,,,0.00,weatherlink.com 1.10,2013-09-14 19:24:00,
2013-09-14 15:39:00,79.8,49.0,30.02,North,5,4.0,-999.0,34,-99.99,,,0.00,weatherlink.com 1.10,2013-09-14 19:39:00,
2013-09-14 15:54:00,80.0,51.0,30.02,North,5,10.0,-999.0,36,-99.99,,,0.00,weatherlink.com 1.10,2013-09-14 19:54:00,
2013-09-14 16:09:00,80.0,50.0,30.02,North,5,7.0,-999.0,35,-99.99,,,0.00,weatherlink.com 1.10,2013-09-14 20:09:00,
2013-09-14 16:24:00,78.8,47.0,30.03,North,5,8.0,-999.0,32,-99.99,,,0.00,weatherlink.com 1.10,2013-09-14 20:24:00,
2013-09-14 16:39:00,77.7,41.0,30.03,North,5,11.0,-999.0,27,-99.99,,,0.00,weatherlink.com 1.10,2013-09-14 20:39:00,
2013-09-14 16:55:00,77.5,40.0,30.04,North,5,8.0,-999.0,26,-99.99,,,0.00,weatherlink.com 1.10,2013-09-14 20:55:00,
2013-09-14 17:10:00,77.7,37.0,30.04,North,5,6.0,-999.0,23,-99.99,,,0.00,weatherlink.com 1.10,2013-09-14 21:10:00,
2013-09-14 17:25:00,76.7,31.0,30.04,North,5,10.0,-999.0,19,-99.99,,,0.00,weatherlink.com 1.10,2013-09-14 21:25:00,
2013-09-14 17:40:00,76.6,31.0,30.05,North,5,5.0,-999.0,19,-99.99,,,0.00,weatherlink.com 1.10,2013-09-14 21:40:00,
2013-09-14 17:55:00,76.5,31.0,30.05,North,5,7.0,-999.0,19,-99.99,,,0.00,weatherlink.com 1.10,2013-09-14 21:55:00,
2013-09-14 18:10:00,76.1,23.0,30.06,North,5,7.0,-999.0,14,-99.99,,,0.00,weatherlink.com 1.10,2013-09-14 22:10:00,
2013-09-14 18:25:00,75.4,15.0,30.05,North,5,8.0,-999.0,10,-99.99,,,0.00,weatherlink.com 1.10,2013-09-14 22:25:00,
2013-09-14 18:40:00,74.8,3.0,30.05,North,5,7.0,-999.0,6,-99.99,,,0.00,weatherlink.com 1.10,2013-09-14 22:40:00,
2013-09-14 18:55:00,73.9,-99.9,30.06,North,5,8.0,-999.0,0,-99.99,,,0.00,weatherlink.com 1.10,2013-09-14 22:55:00,
2013-09-14 19:10:00,73.4,-99.9,30.06,North,5,9.0,-999.0,0,-99.99,,,0.00,weatherlink.com 1.10,2013-09-14 23:10:00,
2013-09-14 19:25:00,72.6,-99.9,30.07,North,5,7.0,-999.0,0,-99.99,,,0.00,weatherlink.com 1.10,2013-09-14 23:25:00,
2013-09-14 19:40:00,72.2,-99.9,30.08,North,5,5.0,-999.0,0,-99.99,,,0.00,weatherlink.com 1.10,2013-09-14 23:40:00,
2013-09-14 19:55:00,71.8,-99.9,30.09,North,5,8.0,-999.0,0,-99.99,,,0.00,weatherlink.com 1.10,2013-09-14 23:55:00,
2013-09-14 20:10:00,71.4,-99.9,30.10,North,5,9.0,-999.0,0,-99.99,,,0.00,weatherlink.com 1.10,2013-09-15 00:10:00,
2013-09-14 20:26:00,71.1,-99.9,30.10,North,5,8.0,-999.0,0,-99.99,,,0.00,weatherlink.com 1.10,2013-09-15 00:26:00,
2013-09-14 20:41:00,70.9,-99.9,30.11,North,5,8.0,-999.0,0,-99.99,,,0.00,weatherlink.com 1.10,2013-09-15 00:41:00,
2013-09-14 20:56:00,70.8,-99.9,30.12,North,5,11.0,-999.0,0,-99.99,,,0.00,weatherlink.com 1.10,2013-09-15 00:56:00,
2013-09-14 21:11:00,70.7,-99.9,30.12,North,5,10.0,-999.0,0,-99.99,,,0.00,weatherlink.com 1.10,2013-09-15 01:11:00,
2013-09-14 21:26:00,70.6,-99.9,30.13,North,5,9.0,-999.0,0,-99.99,,,0.00,weatherlink.com 1.10,2013-09-15 01:26:00,
2013-09-14 21:41:00,70.4,-99.9,30.13,North,5,10.0,-999.0,0,-99.99,,,0.00,weatherlink.com 1.10,2013-09-15 01:41:00,
2013-09-14 21:56:00,70.2,-99.9,30.13,North,5,12.0,-999.0,0,-99.99,,,0.00,weatherlink.com 1.10,2013-09-15 01:56:00,
2013-09-14 22:11:00,69.9,-99.9,30.13,North,5,8.0,-999.0,0,-99.99,,,0.00,weatherlink.com 1.10,2013-09-15 02:11:00,
2013-09-14 22:26:00,69.6,-99.9,30.13,North,5,9.0,-999.0,0,-99.99,,,0.00,weatherlink.com 1.10,2013-09-15 02:26:00,
2013-09-14 22:41:00,69.2,-99.9,30.14,North,5,10.0,-999.0,0,-99.99,,,0.00,weatherlink.com 1.10,2013-09-15 02:41:00,
2013-09-14 22:56:00,68.9,-99.9,30.14,North,5,14.0,-999.0,0,-99.99,,,0.00,weatherlink.com 1.10,2013-09-15 02:56:00,
2013-09-14 23:11:00,68.6,-99.9,30.14,North,5,12.0,-999.0,0,-99.99,,,0.00,weatherlink.com 1.10,2013-09-15 03:11:00,
2013-09-14 23:26:00,68.1,-99.9,30.14,North,5,9.0,-999.0,0,-99.99,,,0.00,weatherlink.com 1.10,2013-09-15 03:26:00,
2013-09-14 23:42:00,67.8,-99.9,30.14,North,5,9.0,-999.0,0,-99.99,,,0.00,weatherlink.com 1.10,2013-09-15 03:42:00,
2013-09-14 23:57:00,67.6,-99.9,30.14,North,5,8.0,-999.0,0,-99.99,,,0.00,weatherlink.com 1.10,2013-09-15 03:57:00,